Location: Newark
(44.4156°N, 12.1972°E)
Time: 22:48:57
(UTC+00:00)

ISS - Visible Passes

Search period start: 22 January 2020 00:00
Search period end: 01 February 2020 00:00
Orbit: 415 x 421 km, 51.6° (Epoch: 23 January)

Date Brightness Start Highest point End Pass type
(mag) Time Alt. Az. Time Alt. Az. Time Alt. Az.
22 Jan -3.4 17:23:49 10° SW 17:27:04 48° SE 17:28:19 30° E visible
22 Jan -0.4 19:00:48 10° W 19:01:16 13° W 19:01:16 13° W visible
23 Jan -2.5 16:36:12 10° SSW 16:39:09 29° SE 16:42:08 10° ENE visible
23 Jan -2.8 18:12:34 10° W 18:15:23 43° NW 18:15:23 43° NW visible
24 Jan -3.6 17:24:24 10° WSW 17:27:45 69° NNW 17:29:26 27° NE visible
24 Jan -0.4 19:02:04 10° WNW 19:02:22 12° WNW 19:02:22 12° WNW visible
25 Jan -3.7 16:36:22 10° SW 16:39:43 77° SSE 16:43:05 10° ENE visible
25 Jan -2.1 18:13:44 10° WNW 18:16:22 28° NNW 18:16:22 28° NNW visible
26 Jan -2.7 17:25:25 10° W 17:28:34 36° NNW 17:30:20 21° NE visible
26 Jan -0.3 19:03:12 10° NW 19:03:16 10° NW 19:03:16 10° NW visible
27 Jan -3.1 16:37:08 10° W 16:40:25 48° NNW 16:43:41 10° NE visible
27 Jan -1.8 18:14:56 10° WNW 18:17:11 22° NNW 18:17:11 22° NNW visible
28 Jan -2.2 17:26:35 10° WNW 17:29:29 25° N 17:31:05 18° NNE visible
29 Jan -1.8 18:15:53 10° NW 18:17:54 22° NNW 18:17:54 22° NNW visible
30 Jan -2.1 17:27:38 10° NW 17:30:24 23° N 17:31:48 18° NE visible
30 Jan -0.4 19:04:35 10° NW 19:04:43 11° NW 19:04:43 11° NW visible
31 Jan -2.1 18:16:31 10° NW 18:18:38 26° NNW 18:18:38 26° NNW visible
